DW3384 Weather Reports


time (UTC)temp
C
wind
direction
speed
KPH
gust
KPH
rain 1hr
cm
rain 24hr
cm
rain mn
cm
humidity
%
barometer
mb
20260903194537 37 161 12.9 25.7 0.00 0.00 0.00 34 1000.9
20260903193035 36 107 11.3 27.4 0.00 0.00 0.00 35 1001.2
20260903191546 36 180 9.7 33.8 0.00 0.00 0.00 37 1001.5
20260903190029 36 210 12.9 24.1 0.00 0.00 0.00 36 1001.7
20260903184540 36 176 8.0 16.1 0.00 0.00 0.00 35 1002.0
20260903183023 35 130 11.3 24.1 0.00 0.00 0.00 36 1002.2
20260903181521 35 154 11.3 22.5 0.00 0.00 0.00 36 1002.5
20260903180016 35 251 9.7 19.3 0.00 0.00 0.00 37 1002.8
20260903174512 33 230 8.0 19.3 0.00 0.00 0.00 40 1002.9
20260903173016 33 164 11.3 24.1 0.00 0.00 0.00 39 1003.0
20260903171505 32 193 8.0 20.9 0.00 0.00 0.00 43 1003.3
20260903170007 31 176 8.0 16.1 0.00 0.00 0.00 46 1003.5
20260903164605 30 177 8.0 20.9 0.00 0.00 0.00 49 1003.6
20260903163056 30 144 6.4 25.7 0.00 0.00 0.00 50 1003.5
20260903161555 29 135 8.0 17.7 0.00 0.00 0.00 53 1003.5
20260903160048 28 145 6.4 16.1 0.00 0.00 0.00 54 1003.7
20260903154548 28 180 6.4 14.5 0.00 0.00 0.00 54 1003.7
20260903153046 28 205 9.7 19.3 0.00 0.00 0.00 55 1003.5
20260903151546 27 166 11.3 17.7 0.00 0.00 0.00 57 1003.6
20260903150045 27 166 4.8 19.3 0.00 0.00 0.00 58 1003.7
20260903144544 27 145 11.3 17.7 0.00 0.00 0.00 59 1003.5
20260903143102 26 145 11.3 17.7 0.00 0.00 0.00 62 1003.8
20260903141541 26 173 9.7 22.5 0.00 0.00 0.00 61 1003.9
20260903140039 26 195 11.3 22.5 0.00 0.00 0.00 61 1003.9
20260903134538 26 97 12.9 25.7 0.00 0.00 0.00 61 1003.8
20260903133036 25 161 12.9 29.0 0.00 0.00 0.00 61 1003.7
20260903131538 25 181 12.9 30.6 0.00 0.00 0.00 61 1003.5
20260903130034 25 193 16.1 24.1 0.00 0.00 0.00 62 1003.5
20260903124535 25 169 17.7 29.0 0.00 0.00 0.00 62 1003.5
20260903123038 25 185 11.3 20.9 0.00 0.00 0.00 61 1003.5
20260903121533 25 196 8.0 16.1 0.00 0.00 0.00 61 1003.4
20260903120024 25 155 4.8 19.3 0.00 0.00 0.00 59 1003.4
20260903114524 26 192 12.9 25.7 0.00 0.00 0.00 59 1003.3
20260903113034 26 145 9.7 25.7 0.00 0.00 0.00 58 1003.1
20260903111520 26 159 12.9 30.6 0.00 0.00 0.00 57 1003.1
20260903110018 26 196 16.1 29.0 0.00 0.00 0.00 56 1003.0
20260903104515 26 146 14.5 35.4 0.00 0.00 0.00 56 1003.1
20260903103013 26 223 12.9 29.0 0.00 0.00 0.00 57 1003.1
20260903101512 26 194 14.5 32.2 0.00 0.00 0.00 57 1003.2
20260903100014 26 161 16.1 27.4 0.00 0.00 0.00 57 1003.3
20260903094508 26 180 17.7 33.8 0.00 0.00 0.00 56 1003.3
20260903093010 26 138 17.7 37.0 0.00 0.00 0.00 56 1003.3
20260903091515 26 146 19.3 33.8 0.00 0.00 0.00 56 1003.3
20260903090003 26 188 14.5 38.6 0.00 0.00 0.00 55 1003.3
20260903084502 27 148 16.1 30.6 0.00 0.00 0.00 55 1003.4
20260903083059 27 150 17.7 27.4 0.00 0.00 0.00 55 1003.4
20260903081557 27 159 16.1 40.2 0.00 0.00 0.00 54 1003.5
20260903080058 27 164 12.9 32.2 0.00 0.00 0.00 54 1003.7
20260903074552 27 183 12.9 25.7 0.00 0.00 0.00 53 1003.8
20260903073051 27 131 9.7 20.9 0.00 0.00 0.00 53 1003.8
20260903071548 27 105 11.3 25.7 0.00 0.00 0.00 52 1003.8
20260903070048 27 142 9.7 24.1 0.00 0.00 0.00 51 1003.7
20260903064546 27 185 9.7 20.9 0.00 0.00 0.00 51 1003.8
20260903063044 27 71 9.7 27.4 0.00 0.00 0.00 51 1003.7
20260903061552 27 171 11.3 29.0 0.00 0.00 0.00 50 1003.6
20260903060042 27 148 14.5 24.1 0.00 0.00 0.00 49 1003.6
20260903054541 28 78 11.3 24.1 0.00 0.00 0.00 48 1003.5
20260903053038 28 136 11.3 25.7 0.00 0.00 0.00 47 1003.5
20260903051535 28 148 12.9 20.9 0.00 0.00 0.00 45 1003.4
20260903050034 28 132 9.7 17.7 0.00 0.00 0.00 44 1003.4
20260903043011 29 126 12.9 25.7 0.00 0.00 0.00 42 1003.2
20260903041511 30 134 12.9 27.4 0.00 0.00 0.00 42 1003.1
20260903040010 30 126 12.9 27.4 0.00 0.00 0.00 41 1003.3
20260903034509 30 156 9.7 25.7 0.00 0.00 0.00 41 1003.1
20260903033009 30 148 11.3 25.7 0.00 0.00 0.00 40 1003.2
20260903031509 30 128 8.0 22.5 0.00 0.00 0.00 40 1003.1
20260903030011 30 115 11.3 22.5 0.00 0.00 0.00 40 1002.9
20260903024507 30 103 11.3 22.5 0.00 0.00 0.00 40 1002.7
20260903023007 30 109 11.3 20.9 0.00 0.00 0.00 39 1002.5
20260903021508 31 124 8.0 16.1 0.00 0.00 0.00 38 1002.4
20260903020006 31 186 9.7 20.9 0.00 0.00 0.00 37 1002.2
20260903014504 31 161 11.3 19.3 0.00 0.00 0.00 36 1002.1
20260903013004 32 128 9.7 19.3 0.00 0.00 0.00 36 1001.9
20260903011504 32 173 9.7 16.1 0.00 0.00 0.00 36 1001.8
20260903010003 32 130 9.7 19.3 0.00 0.00 0.00 35 1001.9
20260903004503 33 135 8.0 24.1 0.00 0.00 0.00 34 1001.9
20260903003003 33 156 8.0 17.7 0.00 0.00 0.00 31 1001.8
20260903001502 34 157 8.0 17.7 0.00 0.00 0.00 30 1002.0
20260903000001 35 140 8.0 19.3 0.00 0.00 0.00 29 1002.0
20260902234502 35 188 11.3 17.7 0.00 0.00 0.00 29 1001.9
20260902233100 36 135 8.0 22.5 0.00 0.00 0.00 29 1001.8
20260902233003 36 198 9.7 22.5 0.00 0.00 0.00 28 1001.9
20260902231602 36 164 11.3 25.7 0.00 0.00 0.00 29 1001.9
20260902230059 36 179 11.3 24.1 0.00 0.00 0.00 28 1002.1
20260902224558 36 198 8.0 22.5 0.00 0.00 0.00 29 1002.1
20260902223105 36 142 11.3 20.9 0.00 0.00 0.00 28 1002.1
20260902221557 36 226 11.3 19.3 0.00 0.00 0.00 27 1002.2
20260902220056 37 175 9.7 24.1 0.00 0.00 0.00 27 1002.1
20260902214555 37 92 6.4 17.7 0.00 0.00 0.00 28 1002.0
20260902213052 37 170 9.7 24.1 0.00 0.00 0.00 27 1002.3
20260902211552 37 91 9.7 19.3 0.00 0.00 0.00 27 1002.5
20260902210048 37 160 3.2 19.3 0.00 0.00 0.00 26 1002.7
20260902204547 37 144 6.4 17.7 0.00 0.00 0.00 26 1003.0
20260902203040 37 236 8.0 30.6 0.00 0.00 0.00 27 1003.3
20260902201545 36 213 8.0 19.3 0.00 0.00 0.00 27 1003.5
20260902200035 36 168 11.3 25.7 0.00 0.00 0.00 28 1003.7